Weather History for Lander, WY

Change the Weather History Date:

Sunday, October 24, 2010

  Actual Average Record
Temperature  
Mean Temperature 50 °F 43 °F  
Max Temperature 65 °F 55 °F 75 °F (2014)
Min Temperature 34 °F 30 °F 3 °F (1916)
Degree Days  
Heating Degree Days 15 22  
Month to date heating degree days 238 433  
Since 1 July heating degree days 387 692  
Cooling Degree Days 0 0  
Month to date cooling degree days 2 0  
Year to date cooling degree days 452 472  
Moisture  
Dew Point 32 °F    
Average Humidity 57    
Maximum Humidity 86    
Minimum Humidity 27    
Precipitation  
Precipitation 0.03 in 0.04 in 1.04 in (1923)
Month to date precipitation 0.16 1.03  
Year to date precipitation 12.95 10.96  
Snow  
Snow 0.00 in 0.40 in - ()
Month to date snowfall 0.0 7.2  
Since 1 July snowfall 0.0 9.9  
Since 1 September snowfall 0.0 9.9  
Snow Depth 0.00 in    
Sea Level Pressure  
Sea Level Pressure 29.52 in    
Wind  
Wind Speed 9 mph (SW)    
Max Wind Speed 24 mph    
Max Gust Speed 49 mph    
Visibility 10 miles    
Events Rain    
T = Trace of Precipitation, MM = Missing Value Source: NWS Daily Summary

Daily Weather History Graph

Daily Weather History Graph

Search for Another Location

Airport:

Trip Planner

Search our weather history database for the weather conditions in past years. The results will help you decide how hot, cold, wet, or windy it might be!

Date:

Astronomy

Oct. 24, 2010 Rise Set
Actual Time 7:39 AM MDT 6:18 PM MDT
Civil Twilight 7:10 AM MDT 6:47 PM MDT
Nautical Twilight 6:37 AM MDT 7:20 PM MDT
Astronomical Twilight 6:04 AM MDT 7:53 PM MDT
Moon 6:57 PM MDT (10/24) 9:28 AM MDT (10/24)
Length of Visible Light 11h 37m
Length of Day
10h 39m
Full, 97% of the Moon is Illuminated
Oct 24
Full
Oct 30
Last Quarter
Nov 5
New
Nov 13
First Quarter
Nov 21
Full

Hourly Weather History & Observations

Time (MDT) Temp. Windchill Dew Point Humidity Pressure Visibility Wind Dir Wind Speed Gust Speed Precip Events Conditions
12:53 AM 44.1 °F - 26.1 °F 49% 29.73 in 10.0 mi Calm Calm - N/A   Overcast
1:53 AM 43.0 °F - 26.1 °F 51% 29.73 in 10.0 mi Calm Calm - N/A   Mostly Cloudy
2:53 AM 45.0 °F 41.2 °F 26.1 °F 48% 29.72 in 10.0 mi SW 6.9 mph - N/A   Partly Cloudy
3:53 AM 37.9 °F 33.5 °F 27.0 °F 65% 29.74 in 10.0 mi NW 5.8 mph - N/A   Clear
4:53 AM 44.1 °F - 26.1 °F 49% 29.71 in 10.0 mi Calm Calm - N/A   Clear
5:53 AM 43.0 °F - 27.0 °F 53% 29.73 in 10.0 mi Calm Calm - N/A   Clear
6:53 AM 39.9 °F 34.5 °F 27.0 °F 60% 29.74 in 10.0 mi ESE 8.1 mph - N/A   Clear
7:53 AM 37.9 °F 35.5 °F 27.0 °F 65% 29.74 in 10.0 mi NW 3.5 mph - N/A   Clear
8:53 AM 39.9 °F 37.8 °F 27.0 °F 60% 29.71 in 10.0 mi NW 3.5 mph - N/A   Partly Cloudy
9:53 AM 43.0 °F 39.5 °F 28.0 °F 56% 29.71 in 10.0 mi NW 5.8 mph - N/A   Overcast
10:53 AM 52.0 °F - 33.1 °F 49% 29.62 in 10.0 mi South 18.4 mph 24.2 mph N/A   Scattered Clouds
11:01 AM 53.6 °F - 33.8 °F 47% 29.69 in 10.0 mi SSE 19.6 mph - N/A   Partly Cloudy
11:53 AM 57.0 °F - 33.1 °F 40% 29.52 in 10.0 mi SE 11.5 mph 18.4 mph N/A   Clear
12:53 PM 59.0 °F - 30.0 °F 33% 29.48 in 10.0 mi NNW 5.8 mph - N/A   Clear
1:53 PM 62.1 °F - 28.9 °F 29% 29.43 in 10.0 mi West 21.9 mph 38.0 mph N/A   Clear
2:53 PM 63.0 °F - 28.9 °F 28% 29.39 in 10.0 mi Variable 6.9 mph - N/A   Clear
3:53 PM 61.0 °F - 30.9 °F 32% 29.42 in 10.0 mi SW 24.2 mph 49.5 mph N/A   Partly Cloudy
4:11 PM 60.8 °F - 32.0 °F 34% 29.53 in 10.0 mi West 25.3 mph 35.7 mph N/A   Partly Cloudy
4:53 PM 59.0 °F - 33.1 °F 38% 29.38 in 10.0 mi SW 10.4 mph - N/A   Clear
5:53 PM 57.0 °F - 34.0 °F 42% 29.38 in 10.0 mi South 8.1 mph 28.8 mph N/A   Partly Cloudy
6:53 PM 55.0 °F - 36.0 °F 49% 29.32 in 10.0 mi SE 15.0 mph 23.0 mph N/A   Overcast
7:53 PM 53.1 °F - 36.0 °F 52% 29.34 in 10.0 mi Variable 5.8 mph 23.0 mph N/A   Clear
8:53 PM 52.0 °F - 39.0 °F 61% 29.27 in 10.0 mi Variable 4.6 mph - N/A   Clear
9:53 PM 52.0 °F - 39.9 °F 63% 29.21 in 10.0 mi SW 21.9 mph 38.0 mph 0.00 in Rain Light Rain
10:53 PM 50.0 °F - 42.1 °F 74% 29.16 in 10.0 mi SSW 19.6 mph 27.6 mph 0.00 in Rain Light Rain
11:53 PM 48.9 °F - 44.1 °F 83% 29.18 in 10.0 mi West 6.9 mph - 0.02 in Rain Light Rain